Location: Banska Bystrica
(48.7333°N, 19.1500°E)
Time: 14:26:46
(UTC+02:00)

Daily predictions for brighter satellites

Satellite Brightness Start Highest point End
(mag) Time Altitude Azimuth Time Altitude Azimuth Time Altitude Azimuth
Cosmos 2322 3.7 18:02:22 10° NNW 18:08:07 71° ENE 18:13:49 10° SE
Cosmos 1242 Rocket 4.1 18:11:59 10° SW 18:15:27 39° WNW 18:18:58 10° N
GP-B 3.2 18:12:13 10° N 18:16:36 53° E 18:20:56 10° SSE
Meteor 1-16 Rocket 4.2 18:12:11 10° S 18:17:29 90° WSW 18:22:56 10° NNE
CZ-2C R/B 4.4 18:13:38 10° SSW 18:17:44 32° W 18:21:56 10° NNW
SKYMED 2 4.3 18:14:14 10° NNE 18:18:08 31° E 18:22:01 10° SSE
Aureole 2 4.2 18:15:19 10° NNW 18:18:20 57° ENE 18:21:39 10° SE
Cosmos 2219 Rocket 2.8 18:13:19 10° NNW 18:18:27 35° NE 18:23:34 10° ESE
Cosmos 1743 Rocket 3.5 18:15:02 10° N 18:19:27 85° E 18:23:52 10° S
Meteor 1-11 4.5 18:14:05 10° NNW 18:19:54 80° W 18:25:36 10° S
Cosmos 44 4.4 18:17:56 10° SSE 18:21:08 20° ESE 18:24:19 10° ENE
CZ-4 R/B 1.7 18:17:54 10° S 18:22:06 78° WSW 18:26:15 10° NNW
SL-24 R/B - RUBIN 2 4.3 18:17:24 10° NW 18:22:21 63° WSW 18:26:46 10° SSE
Cosmos 2221 3.4 18:18:59 10° SE 18:22:37 27° E 18:26:18 10° NNE
Aureole 2 Rocket 3.7 18:20:24 10° N 18:23:44 27° ENE 18:27:11 10° ESE
CZ-4C R/B 3.4 18:19:56 10° SSE 18:23:50 21° ESE 18:28:05 10° ENE
Cosmos 921 Rocket 3.0 18:19:57 10° NNW 18:24:27 72° ENE 18:28:49 10° SSE
Cosmos 2084 4.0 18:21:36 10° NNW 18:25:02 32° NE 18:28:31 10° ESE
CZ-4 R/B 4.4 18:22:08 10° SSE 18:26:16 75° ENE 18:30:26 10° N
MTI 3.9 18:23:32 10° NNE 18:26:42 51° E 18:29:50 10° S
SMAP 4.0 18:27:03 10° S 18:31:36 54° W 18:36:11 10° NNW
Cosmos 1842 Rocket 3.5 18:27:49 10° S 18:32:15 71° E 18:36:42 10° NNE
GRACE-2 4.3 18:30:07 10° SSE 18:32:29 33° E 18:34:52 10° NNE
SL-8 R/B 4.1 18:28:22 10° SW 18:33:03 52° SSE 18:37:15 13° E
NOAA 12 4.3 18:28:54 10° SE 18:34:00 51° ENE 18:39:11 10° N
METEOR-M 4.1 18:29:31 10° SSE 18:34:51 74° ENE 18:40:13 10° N
Cosmos 1420 Rocket 4.0 18:29:48 10° NNW 18:35:10 81° ENE 18:40:28 10° SSE
Cosmos 158 Rocket 4.5 18:31:14 10° S 18:35:53 38° ESE 18:40:42 10° NE
EO 1 Del DPAF 3.3 18:32:18 10° NNE 18:36:06 54° E 18:39:52 10° S
APEX 3.9 18:34:21 10° SSE 18:36:43 21° ESE 18:38:02 15° ENE
GRACE-1 4.0 18:34:34 10° SSE 18:37:02 41° E 18:39:30 10° NNE
Cosmos 2366 rocket 4.1 18:33:22 10° S 18:39:35 85° W 18:45:48 10° N
ERS-2 3.1 18:36:09 10° S 18:39:45 51° WSW 18:43:23 10° NNW
Cosmos 1500 Rocket 3.7 18:35:42 10° NNW 18:40:04 78° W 18:44:22 10° S
MONITOR-E 4.0 18:38:13 10° SSE 18:41:16 76° ENE 18:44:22 10° N
Cosmos 2333 4.2 18:38:15 10° NNW 18:43:59 73° ENE 18:49:44 10° SE
Cosmos 1315 Rocket 2.8 18:40:01 10° N 18:44:07 86° ENE 18:48:13 10° SSE
BREEZE M DEB (TANK) 2.2 18:37:52 10° W 18:44:11 89° N 18:46:06 18° E
Landsat 4 4.0 18:40:28 10° N 18:44:11 69° WNW 18:47:52 10° SSW
Cosmos 2237 4.5 18:42:25 10° NNW 18:48:10 74° WSW 18:53:51 10° SSE
Cosmos 1726 3.0 18:46:28 10° SSE 18:49:39 28° E 18:52:50 10° NNE
Thor Agena Rocket 4.3 18:45:50 10° NE 18:50:14 29° E 18:54:34 10° SSE
Abrixas rocket 2.1 18:47:46 10° W 18:51:04 87° S 18:53:04 22° E
Cosmos 44 Rocket 3.7 18:47:47 10° S 18:52:07 38° ESE 18:55:46 14° NE
Cosmos 2237 Rocket 2.8 18:48:29 10° NNW 18:53:47 37° NE 18:57:54 16° ESE
Gbstr 26 Del rocket 3.7 18:49:48 10° WNW 18:54:35 69° SSW 19:00:18 11° SE
Meteor 1-28 Rocket 3.9 18:51:25 10° N 18:55:10 57° WNW 18:58:51 10° SSW
Resurs 01 Rocket 2.9 19:03:24 20° ENE 19:03:41 20° ENE 19:06:54 10° NNE
Cosmos 1331 Rocket 4.4 18:59:15 10° NNW 19:04:15 42° ENE 19:07:59 17° SE
SL-16 R/B 3.4 19:00:41 10° N 19:05:14 24° NE 19:07:11 20° ENE
Cosmos 2227 Rocket 3.6 19:01:44 10° SE 19:04:19 17° ESE 19:04:19 17° ESE
Sich 1 3.3 19:01:32 10° N 19:05:46 46° ENE 19:10:00 10° SSE
COSMO-SKYMED 1 2.6 19:01:59 10° NNE 19:06:22 87° W 19:10:41 10° SSW
Lacrosse 5 rocket 2.9 19:04:55 10° WNW 19:08:42 27° N 19:11:10 16° NE
SJ-6B 3.2 19:08:06 24° ESE 19:09:41 36° ENE 19:13:09 10° N
Cosmos 1000 Rocket 4.4 19:04:05 10° N 19:10:22 84° E 19:16:33 10° S
Cosmos 2360 Rocket 4.1 19:09:54 10° NW 19:14:52 32° WSW 19:19:50 10° SSW
Cosmos 1821 Rocket 3.9 19:09:35 10° S 19:15:41 65° E 19:21:54 10° NNE
USA 234 3.8 19:11:24 19° ENE 19:15:46 46° N 19:21:57 10° WNW
FREGAT/IRIS 2.6 19:14:49 33° SE 19:15:52 56° ENE 19:18:50 10° N
Cosmos 1934 Rocket 4.1 19:10:13 10° SSE 19:16:19 51° E 19:22:27 10° NNE
Meteor 2-3 Rocket 4.5 19:11:39 10° N 19:16:45 31° ENE 19:18:31 26° E
Cosmos 1908 3.6 19:13:57 10° SSW 19:17:50 66° WNW 19:21:44 10° N
Cosmos 1980 3.8 19:12:28 10° NNW 19:18:02 55° NE 19:21:42 21° SE
Cosmos 1805 Rocket 3.5 19:14:34 10° N 19:18:59 90° WNW 19:23:24 10° S
DMSP B5D1-3 4.4 19:16:31 10° NNE 19:21:41 79° ESE 19:26:49 10° SSW
Cosmos 2239 Rocket 4.4 19:15:45 10° S 19:21:50 72° E 19:27:59 10° NNE
ATLAS 5 CENTAUR R/B 4.0 19:19:54 10° NW 19:23:37 18° N 19:26:24 14° NE
COSMOS 2428 3.3 19:19:11 10° NW 19:24:44 57° WSW 19:30:18 10° S
Cosmos 1269 Rocket 3.9 19:19:35 10° SSW 19:24:49 70° ESE 19:30:06 10° NNE
H-2A R/B 2.6 19:23:03 10° SSE 19:26:53 73° ENE 19:30:49 10° N
Cosmos 2333 Rocket 2.2 19:22:06 10° NNW 19:27:53 86° ENE 19:33:15 12° SSE
Cosmos 1666 Rocket 3.4 19:23:50 10° N 19:28:12 74° E 19:32:30 10° SSE
ALOS 2.9 19:25:32 10° S 19:30:08 58° W 19:34:46 10° NNW
Cosmos 1302 Rocket 4.4 19:27:33 10° NNW 19:32:32 43° ENE 19:33:46 37° E
HJ-1C 3.3 19:33:55 64° E 19:33:58 64° ENE 19:37:23 10° N
Cosmos 2219 3.1 19:28:15 10° SSW 19:33:58 74° ESE 19:39:43 10° NNE
Cosmos 1633 Rocket 2.9 19:29:36 10° N 19:34:02 71° ENE 19:37:29 16° SSE
Cosmos 1933 Rocket 4.4 19:31:58 10° N 19:35:02 31° NE 19:35:02 31° NE
FENGYUN 3A 4.3 19:30:55 10° S 19:36:14 58° W 19:41:37 10° NNW
Cosmos 2123 Rocket 3.9 19:35:28 10° N 19:41:44 84° E 19:48:02 10° S
Cosmos 2297 Rocket 3.9 19:37:52 10° SSE 19:39:18 17° SSE 19:39:18 17° SSE
Cosmos 1300 2.5 19:41:31 10° S 19:45:20 82° E 19:49:12 10° NNE
Spot 2 Rocket 3.8 19:45:36 43° ENE 19:45:47 44° ENE 19:50:36 10° N
Cosmos 1892 4.4 19:43:11 10° N 19:44:42 21° NNE 19:44:42 21° NNE
CSL-04 DEB 4.2 19:46:31 43° SSE 19:47:49 87° ENE 19:51:51 10° NNW
Cosmos 2098 Rocket 3.9 19:43:20 10° SSW 19:48:10 68° WNW 19:54:21 10° N
Meteor 2-2 Rocket 4.2 19:42:50 10° S 19:48:25 59° E 19:53:57 10° NNE
Iridium 4 Rocket 4.3 19:43:00 10° SSW 19:48:37 60° W 19:54:29 10° N
Cosmos 1605 Rocket 3.9 19:44:06 10° S 19:50:05 62° E 19:56:05 10° NNE
Cosmos 494 Rocket 4.2 19:45:50 10° S 19:50:07 47° SE 19:50:07 47° SE
MOS 1-B Rocket 3.9 19:47:31 26° SSE 19:50:53 69° ENE 19:57:11 10° NNW
CZ-2D R/B 3.6 19:51:54 50° NNE 19:51:54 50° NNE 19:54:59 10° N
Cosmos 1110 Rocket 4.1 19:46:21 10° NNW 19:51:41 76° WSW 19:55:18 21° SSE
USA 32 4.0 19:47:47 10° N 19:53:00 62° E 19:54:17 47° SE
Cosmos 967 Rocket 4.4 19:46:32 10° NW 19:53:01 76° NE 19:55:31 40° SE
Meteor 2-10 3.8 19:49:00 10° S 19:54:03 86° ESE 19:59:15 10° NNE
Aureole 2 Rocket 4.5 19:55:18 10° NW 19:58:48 32° WSW 20:02:25 10° SSW
Cosmos 2221 4.3 19:56:10 10° SW 20:00:05 33° WNW 20:04:04 10° N
H-2A R/B 4.4 20:02:28 11° NNE 20:02:28 11° NNE 20:02:43 10° NNE
Cosmos 44 3.5 19:57:39 10° SW 20:01:56 58° NW 20:03:15 40° N
Cosmos 2219 Rocket 3.1 19:57:13 10° NW 20:02:33 46° WSW 20:07:52 10° S
Cosmos 2084 4.4 20:01:03 10° WNW 20:04:34 36° SW 20:05:13 34° SSW
CZ-4C R/B 2.3 20:06:09 10° SW 20:11:30 77° NW 20:14:12 34° NE
SL-8 R/B 3.7 20:10:38 10° W 20:15:13 80° WSW 20:15:13 80° WSW
Cosmos 1447 Rocket 4.4 20:13:39 10° N 20:20:02 89° E 20:22:26 41° S
Envisat 2.9 20:20:56 83° N 20:20:56 83° N 20:25:52 10° NNW
USA 267 4.1 20:22:48 33° S 20:22:48 33° S 20:26:54 10° SSW
Cosmos 1726 4.5 20:21:56 10° SW 20:24:57 23° WNW 20:27:58 10° NNW
Cosmos 1470 Rocket 4.1 20:22:03 10° NNW 20:25:52 57° NW 20:25:52 57° NW
Cosmos 44 Rocket 4.4 20:29:15 10° WSW 20:33:39 38° NW 20:34:31 35° NNW
Cosmos 2237 Rocket 3.1 20:32:33 10° NW 20:37:58 45° WSW 20:39:47 34° SSW
Resurs 01 Rocket 2.8 20:40:59 41° NW 20:40:59 41° NW 20:44:09 10° NNW
Cosmos 2227 Rocket 3.3 20:43:09 10° SSW 20:46:16 34° SW 20:46:16 34° SW
Lacrosse 5 rocket 3.6 20:44:56 10° NW 20:46:51 22° NNW 20:46:51 22° NNW
SL-16 R/B 2.5 20:44:20 10° NNW 20:49:04 62° NW 20:49:04 62° NW
USA 234 3.3 20:58:45 72° N 20:58:45 72° N 21:04:54 10° NW
ATLAS 5 CENTAUR R/B 3.8 21:04:46 10° NNW 21:07:56 28° N 21:07:56 28° N
CZ-4C R/B 4.3 21:56:10 10° W 21:59:25 25° NW 21:59:25 25° NW
